Wind_Speed
32 33 33 33 34 34 34 34 35 35 36 36 37 38 38 38 38 38 38 38 37 37 37 37 37 37 36 36 36 36 35 35 35 35 35 34 34 34 34 35 35 35 36
34 34 34 35 35 35 35 36 36 37 37 38 39 39 40 40 40 40 39 39 39 39 38 38 38 38 38 38 38 39 38 38 38 37 37 37 37 37 37 36 36 36 36
36 37 37 38 37 37 37 38 38 39 40 41 41 41 41 41 41 40 40 40 40 40 39 40 40 40 39 39 40 40 40 40 40 40 40 40 40 40 40 39 38 38 37
39 39 39 39 39 40 40 40 40 41 42 42 42 42 42 41 41 40 40 40 40 40 40 40 41 41 41 42 42 42 42 42 42 42 42 42 42 42 41 41 41 40 39
39 39 39 40 40 41 41 41 42 42 42 42 43 43 42 43 43 42 42 41 41 41 40 41 42 42 42 43 43 43 43 44 44 44 44 44 44 44 44 43 43 42 42
41 41 41 40 40 41 41 42 42 43 43 43 43 44 43 44 44 44 44 43 43 42 42 42 42 43 43 43 43 44 44 44 44 45 45 46 45 45 45 45 44 44 44
41 42 42 41 41 42 42 43 44 44 44 44 44 44 44 44 45 45 45 44 44 43 43 43 44 44 44 44 44 45 45 45 45 46 46 46 46 46 46 46 46 47 47
42 42 42 42 43 43 44 44 45 45 45 45 45 46 45 45 45 46 46 45 45 45 45 45 45 45 45 45 46 46 46 46 46 47 47 47 47 47 47 48 48 49 48
41 41 42 43 43 44 45 45 45 45 45 45 46 46 46 46 46 46 46 46 46 46 46 46 46 46 46 47 47 46 47 47 48 47 48 48 49 48 48 49 50 50 51
42 42 43 44 44 45 45 45 45 45 45 46 46 47 47 47 47 46 46 46 46 46 46 47 47 47 47 47 47 47 48 48 49 49 49 49 49 49 50 50 50 51 51
43 43 43 44 45 45 45 45 45 46 46 46 46 46 45 46 45 45 45 46 46 47 46 47 47 47 48 48 48 49 50 50 50 50 50 51 51 51 51 51 51 51 52
43 43 44 44 44 44 44 45 45 46 46 46 45 45 45 45 45 46 46 46 46 47 47 47 48 47 48 49 49 51 51 51 51 51 51 51 52 52 52 52 53 53 53
43 43 44 44 44 45 45 45 45 46 46 45 45 46 46 46 46 46 46 46 46 46 47 47 47 48 48 49 50 51 52 52 52 52 52 53 54 54 54 54 54 54 54
43 43 44 44 44 45 45 45 46 46 46 46 46 46 47 47 47 47 48 47 47 46 47 47 47 49 49 49 50 51 52 52 53 53 53 54 54 55 56 56 55 55 55
45 45 44 44 45 45 45 46 46 46 46 47 47 46 47 48 48 49 48 48 48 47 48 48 48 48 48 49 50 51 51 51 52 53 54 54 55 55 55 55 55 55 55
46 47 46 46 46 46 46 45 45 46 47 47 46 47 47 48 48 48 48 48 48 48 48 48 48 48 48 48 48 49 49 50 51 51 52 52 53 53 53 54 54 54 54
46 47 47 47 46 46 45 45 46 46 46 45 45 45 46 46 47 47 48 47 47 46 47 47 47 47 47 48 48 48 49 49 50 50 50 50 50 50 51 52 53 53 53
46 46 47 46 46 46 45 46 46 45 45 44 43 44 45 45 44 44 45 45 45 45 46 46 46 47 47 47 47 47 48 49 49 49 50 50 50 50 51 51 51 52 52
46 46 45 45 45 45 44 44 44 44 43 42 42 42 42 42 43 43 44 44 44 44 45 46 46 46 46 46 46 47 47 48 48 49 49 49 50 50 50 50 50 50 50
44 44 44 44 43 43 43 43 43 43 42 41 41 41 41 41 42 42 43 43 43 44 45 46 46 46 46 47 47 47 47 48 47 48 48 49 49 48 48 48 48 48 48
44 43 43 43 43 43 43 42 42 42 41 41 41 41 41 40 40 41 42 43 44 45 45 46 45 45 46 46 47 47 48 47 47 47 47 48 48 48 48 47 47 48 48
43 43 42 42 43 43 42 42 41 41 41 41 40 41 41 41 41 42 42 43 44 45 46 45 45 45 45 46 47 47 48 47 46 46 46 47 47 47 47 47 47 47 47
43 43 42 42 42 42 41 41 40 41 41 41 41 41 42 42 41 42 42 43 44 44 45 45 45 45 46 47 47 46 47 46 46 46 46 45 45 45 45 46 46 46 47
42 43 43 42 42 41 41 41 40 40 40 41 41 42 43 43 43 43 43 43 43 44 45 45 45 45 46 46 46 45 45 45 45 46 46 45 44 44 44 45 46 46 46
42 42 42 42 41 41 42 41 41 41 41 41 41 41 42 42 43 43 43 44 44 44 44 44 45 45 45 45 45 45 45 45 44 45 45 44 44 44 43 44 45 45 45
40 40 40 40 40 39 40 40 41 40 40 40 41 41 41 41 42 42 42 42 43 43 43 43 43 44 44 44 44 44 43 43 43 43 43 43 43 44 43 43 43 44 44
Wind_Direction
269 270 271 271 272 272 273 273 273 272 272 272 273 273 274 274 274 274 274 273 273 272 271 271 272 272 272 272 271 272 272 272 273 274 274 275 276 276 275 275 275 274 273
271 271 271 270 271 272 272 273 274 274 273 273 273 273 273 274 275 275 274 273 272 271 271 271 271 272 272 272 271 271 270 270 271 272 273 273 275 276 275 275 275 274 273
270 272 272 272 271 272 272 273 274 274 274 274 274 273 274 274 273 273 273 272 272 271 271 271 271 270 271 271 271 270 270 269 270 270 271 273 274 274 274 274 273 273 273
272 273 272 271 271 271 272 273 274 275 275 275 274 274 273 273 274 273 273 273 272 271 271 271 271 270 270 270 270 270 269 269 270 270 270 272 273 273 273 273 272 272 271
272 272 271 271 271 271 272 273 274 275 275 275 275 274 273 272 273 273 273 272 272 272 271 271 271 271 270 269 268 268 269 269 269 270 270 271 272 272 272 272 272 271 271
272 271 271 271 272 273 273 274 275 275 275 275 276 275 274 273 273 272 272 273 273 272 272 271 271 271 271 270 269 269 270 270 269 270 271 271 271 272 272 272 271 271 271
272 272 272 272 273 273 274 275 276 276 276 276 275 275 274 274 273 273 272 273 273 273 273 272 272 271 270 270 269 270 270 270 270 270 271 271 271 271 271 271 271 271 271
272 272 274 274 274 274 275 275 276 276 277 277 275 274 274 274 274 274 274 274 274 274 274 273 272 271 271 270 269 269 270 270 270 271 271 271 271 272 272 271 271 270 270
273 273 273 273 274 274 276 275 276 276 277 277 276 275 274 273 274 274 275 274 274 274 274 273 272 271 271 270 269 269 270 271 271 271 272 272 272 272 272 272 271 270 270
272 272 273 273 274 275 275 275 275 276 277 277 276 275 274 273 274 274 273 274 273 273 273 272 272 272 271 270 270 270 271 271 271 272 272 272 273 273 273 273 272 271 270
273 274 275 275 275 275 275 275 275 276 277 277 276 275 275 274 274 273 273 273 274 273 273 273 273 272 272 272 272 271 271 271 271 272 272 272 272 273 273 273 273 273 272
274 274 276 276 275 275 275 275 276 276 277 276 275 274 274 275 275 274 273 273 274 274 274 274 274 274 274 274 274 273 271 271 272 272 272 272 273 273 273 273 273 273 273
274 275 276 276 276 276 276 276 276 276 276 276 275 274 274 275 275 274 274 274 275 275 275 276 276 276 275 275 275 273 272 272 272 273 272 273 273 274 274 273 273 274 274
275 276 276 277 277 276 277 276 275 275 275 275 274 274 274 274 274 274 274 274 275 276 276 275 276 276 276 276 276 275 274 273 273 274 274 274 274 274 274 274 274 274 274
275 276 276 277 276 277 276 276 276 276 275 274 274 275 275 275 275 275 274 274 275 276 276 275 277 278 278 278 278 277 276 275 274 275 276 276 276 275 275 275 275 275 275
276 276 276 277 277 276 276 277 276 276 276 275 275 274 274 274 275 275 276 275 275 276 276 276 277 279 278 279 279 280 278 277 276 277 277 277 277 277 276 276 276 275 275
277 277 276 277 277 277 277 276 276 276 276 275 276 275 274 274 275 276 275 274 274 276 277 278 278 279 279 280 280 281 280 278 278 278 278 277 277 278 277 277 277 276 275
278 278 277 277 277 276 276 276 276 276 275 275 274 274 275 275 275 276 275 274 275 277 279 279 278 279 279 280 281 281 281 279 279 279 279 279 279 279 279 278 277 276 275
279 278 278 277 277 277 276 276 276 275 275 275 275 275 276 276 276 276 276 276 276 278 279 279 279 280 280 281 281 281 281 281 281 281 280 280 280 280 279 279 278 276 275
278 279 278 278 278 277 277 276 276 275 275 276 276 275 276 277 277 277 277 277 277 279 280 280 281 281 281 282 282 281 282 283 282 282 281 281 281 280 279 279 277 277 276
278 279 278 278 278 277 277 277 276 275 275 275 275 275 276 278 278 279 279 278 277 279 281 282 282 282 282 282 283 282 282 281 281 282 281 281 280 280 280 279 278 277 277
278 278 278 277 277 277 277 278 277 275 274 275 275 275 276 278 278 279 279 279 278 280 280 281 283 284 283 282 283 283 282 281 281 281 281 281 281 280 280 278 277 277 277
277 277 277 276 277 276 276 277 276 275 275 275 275 275 277 278 279 280 279 280 280 281 281 282 283 284 283 283 283 283 283 283 282 282 281 281 281 280 279 278 277 277 278
276 276 277 276 276 275 275 276 276 274 275 275 275 275 276 278 279 280 281 282 283 283 283 284 285 284 283 283 284 284 283 283 283 283 282 281 280 279 279 279 279 279 279
277 276 276 277 276 275 275 275 276 275 275 275 275 276 276 278 280 281 282 283 284 284 284 284 285 284 284 285 286 284 283 283 282 282 281 280 279 279 279 279 279 279 279
277 277 277 277 276 275 274 274 275 276 275 275 275 276 278 280 281 283 283 284 285 285 284 285 285 286 286 286 286 285 284 283 283 283 281 281 280 279 278 279 279 278 279
Height
5795 5795 5795 5795 5795 5795 5795 5795 5794 5794 5794 5794 5794 5794 5794 5793 5792 5792 5791 5791 5791 5791 5791 5791 5792 5792 5792 5793 5793 5794 5794 5795 5795 5795 5795 5795 5795 5794 5794 5794 5793 5793 5792
5787 5787 5787 5787 5787 5787 5787 5787 5786 5786 5786 5785 5785 5785 5784 5784 5783 5783 5782 5781 5781 5781 5781 5782 5782 5783 5783 5783 5784 5785 5785 5785 5786 5786 5786 5786 5786 5786 5785 5785 5784 5784 5784
5779 5779 5779 5779 5779 5778 5778 5778 5777 5777 5777 5776 5776 5775 5775 5774 5773 5773 5772 5772 5772 5772 5772 5772 5772 5773 5773 5774 5774 5775 5775 5776 5776 5776 5776 5776 5776 5776 5776 5775 5775 5775 5774
5771 5770 5770 5770 5769 5769 5769 5769 5768 5768 5767 5766 5766 5765 5764 5763 5763 5762 5762 5762 5762 5762 5762 5762 5762 5763 5763 5763 5764 5764 5765 5765 5766 5766 5766 5766 5766 5766 5766 5765 5765 5765 5764
5761 5761 5760 5760 5759 5759 5759 5759 5759 5758 5757 5756 5755 5754 5753 5753 5752 5752 5752 5752 5751 5751 5751 5752 5752 5752 5752 5753 5753 5753 5754 5754 5755 5755 5755 5755 5755 5755 5755 5755 5754 5754 5754
5752 5751 5751 5750 5750 5749 5749 5748 5748 5747 5746 5745 5744 5743 5742 5742 5741 5741 5741 5741 5741 5741 5741 5741 5741 5741 5741 5742 5742 5742 5743 5743 5744 5744 5744 5744 5744 5744 5743 5743 5743 5743 5743
5742 5741 5741 5740 5740 5739 5738 5738 5737 5736 5735 5734 5733 5732 5731 5730 5730 5730 5730 5730 5730 5730 5730 5730 5730 5730 5730 5730 5731 5731 5731 5732 5732 5732 5732 5732 5732 5732 5732 5731 5731 5731 5731
5731 5731 5730 5730 5729 5729 5728 5727 5726 5725 5724 5722 5722 5720 5720 5720 5719 5718 5718 5718 5718 5718 5718 5718 5718 5718 5718 5719 5719 5719 5720 5720 5720 5720 5720 5720 5720 5720 5719 5719 5719 5719 5719
5721 5720 5720 5719 5718 5718 5717 5716 5715 5714 5713 5711 5709 5709 5708 5709 5708 5708 5707 5707 5706 5706 5706 5706 5706 5706 5707 5707 5707 5707 5707 5708 5708 5708 5708 5707 5707 5707 5706 5706 5706 5706 5706
5710 5710 5709 5708 5707 5706 5705 5704 5703 5702 5701 5699 5698 5696 5696 5696 5696 5697 5697 5695 5695 5695 5695 5695 5695 5695 5694 5695 5695 5695 5695 5695 5695 5695 5694 5694 5694 5693 5693 5692 5692 5692 5692
5699 5699 5698 5697 5696 5695 5694 5692 5691 5690 5689 5688 5686 5685 5684 5684 5684 5684 5685 5685 5684 5684 5683 5683 5683 5683 5682 5682 5682 5682 5682 5682 5682 5681 5681 5680 5680 5680 5679 5679 5679 5678 5678
5688 5687 5686 5685 5684 5683 5682 5681 5680 5678 5677 5676 5674 5673 5673 5673 5672 5672 5673 5673 5673 5672 5672 5671 5671 5671 5670 5670 5669 5669 5668 5668 5668 5667 5667 5666 5666 5666 5665 5665 5664 5663 5663
5678 5676 5675 5674 5673 5672 5671 5669 5668 5667 5666 5665 5663 5662 5662 5661 5661 5660 5660 5661 5661 5661 5661 5660 5659 5659 5658 5657 5656 5655 5654 5654 5654 5653 5653 5652 5652 5651 5651 5650 5649 5648 5647
5667 5665 5664 5662 5661 5660 5659 5658 5657 5655 5654 5653 5652 5651 5650 5650 5649 5648 5649 5649 5649 5650 5649 5649 5647 5646 5645 5644 5643 5642 5641 5640 5639 5639 5638 5638 5637 5636 5635 5635 5634 5633 5632
5655 5653 5652 5651 5650 5648 5647 5646 5645 5644 5643 5641 5640 5639 5639 5638 5637 5636 5636 5636 5637 5637 5638 5637 5636 5634 5632 5631 5630 5629 5627 5626 5625 5625 5624 5623 5622 5621 5619 5619 5618 5617 5616
5643 5642 5641 5639 5638 5637 5636 5634 5633 5632 5630 5630 5628 5628 5627 5626 5625 5624 5623 5624 5623 5624 5625 5625 5623 5622 5620 5618 5616 5615 5614 5612 5611 5610 5609 5608 5606 5605 5604 5603 5601 5600 5600
5632 5630 5629 5627 5626 5624 5623 5622 5621 5620 5619 5618 5617 5616 5615 5614 5613 5612 5612 5612 5611 5611 5612 5612 5611 5609 5607 5606 5604 5602 5600 5599 5597 5596 5595 5593 5592 5590 5588 5587 5585 5584 5584
5621 5619 5617 5615 5614 5612 5611 5610 5609 5608 5607 5606 5605 5604 5603 5602 5602 5601 5600 5600 5600 5599 5599 5599 5599 5597 5595 5593 5592 5590 5587 5585 5584 5582 5581 5579 5577 5576 5574 5572 5570 5569 5568
5609 5607 5605 5604 5602 5601 5599 5599 5598 5597 5596 5595 5594 5593 5592 5591 5590 5590 5589 5588 5588 5588 5587 5587 5586 5584 5582 5581 5579 5577 5574 5572 5570 5569 5567 5565 5563 5561 5559 5557 5555 5554 5553
5598 5596 5594 5592 5591 5590 5588 5587 5587 5586 5585 5584 5583 5582 5581 5580 5579 5578 5578 5577 5577 5576 5575 5574 5573 5571 5570 5568 5566 5564 5562 5560 5557 5555 5553 5551 5549 5547 5545 5543 5542 5540 5539
5586 5584 5583 5581 5580 5579 5577 5576 5576 5575 5574 5574 5573 5572 5571 5570 5569 5568 5567 5567 5566 5565 5563 5562 5561 5559 5557 5555 5554 5551 5549 5547 5545 5542 5540 5538 5536 5534 5531 5529 5528 5526 5525
5575 5573 5572 5570 5569 5567 5566 5565 5564 5564 5564 5563 5562 5561 5560 5560 5559 5558 5557 5556 5555 5553 5551 5550 5548 5547 5545 5542 5540 5538 5536 5534 5533 5531 5528 5525 5522 5521 5518 5517 5515 5513 5511
5563 5562 5560 5559 5558 5556 5555 5555 5554 5553 5553 5553 5552 5551 5550 5549 5548 5547 5546 5544 5543 5541 5540 5538 5536 5534 5532 5530 5528 5525 5522 5520 5518 5516 5514 5513 5510 5508 5506 5503 5501 5500 5498
5551 5550 5549 5548 5546 5546 5545 5544 5543 5542 5542 5542 5541 5540 5539 5538 5537 5536 5534 5533 5531 5529 5528 5526 5524 5522 5519 5516 5514 5512 5510 5508 5505 5502 5500 5500 5498 5496 5494 5491 5488 5486 5484
5540 5539 5537 5536 5535 5535 5534 5533 5532 5531 5531 5531 5530 5529 5528 5528 5526 5524 5523 5521 5520 5518 5515 5513 5511 5508 5506 5504 5501 5499 5497 5495 5493 5491 5487 5486 5485 5483 5482 5480 5476 5474 5471
5528 5527 5526 5525 5524 5523 5523 5522 5521 5521 5520 5520 5519 5519 5518 5516 5515 5512 5511 5509 5508 5506 5503 5501 5498 5496 5494 5491 5488 5486 5484 5482 5479 5478 5475 5473 5471 5469 5470 5469 5465 5462 5459